Retour au catalogue

STARLINK-5330

ActifCommunicationsVLEO
NORAD 55282·PAYLOAD·🇺🇸 United States

Lancé Jan 19, 2023 depuis Vandenberg Space Force Base

Loading…

Prochains Passages (prochaines 24 heures)

TLE

FraisSource: CelesTrak SupGP

Époque: Sep 14, 2026, 20:35 UTC

1 55282C 23010P   26257.85812500  .00023109  00000+0  19370-2 0  2572
2 55282  69.9996 287.3220 0003731 268.1597 166.5030 14.98310724    19

Suivez STARLINK-5330 en temps réel avec AllMySat

Download on the App Store